DW3949 Weather Reports


time (UTC)temp
C
wind
direction
speed
KPH
gust
KPH
rain 1hr
cm
rain 24hr
cm
rain mn
cm
humidity
%
barometer
mb
20260505153045 23 200 3.2 6.4 0.00 0.00 0.00 50 1012.0
20260505152544 23 215 3.2 6.4 0.00 0.00 0.00 54 1012.0
20260505152540 23 164 3.2 6.4 0.00 0.00 0.00 54 1012.0
20260505151538 23 227 3.2 6.4 0.00 0.00 0.00 54 1012.0
20260505151043 23 137 3.2 8.0 0.00 0.00 0.00 53 1011.9
20260505151038 23 221 3.2 8.0 0.00 0.00 0.00 51 1012.0
20260505150653 22 179 3.2 6.4 0.00 0.00 0.00 53 1011.9
20260505140528 21 163 1.6 6.4 0.00 0.00 0.00 63 1012.1
20260505125021 17 325 1.6 14.5 0.00 0.00 0.00 66 1012.5
20260505124517 17 277 1.6 8.0 0.00 0.00 0.00 66 1012.6
20260505124018 17 217 1.6 8.0 0.00 0.00 0.00 67 1012.8
20260505123519 17 288 1.6 9.7 0.00 0.00 0.00 66 1012.6
20260505123017 16 300 1.6 9.7 0.00 0.00 0.00 67 1012.6
20260505122517 16 336 1.6 8.0 0.00 0.00 0.00 69 1012.5
20260505122017 16 132 0.0 8.0 0.00 0.00 0.00 71 1012.5
20260505121520 16 217 0.0 6.4 0.00 0.00 0.00 73 1012.6
20260505121018 16 217 1.6 8.0 0.00 0.00 0.00 70 1012.4
20260505120517 15 19 0.0 8.0 0.00 0.00 0.00 71 1012.4
20260505120024 15 99 0.0 1.6 0.00 0.00 0.00 73 1012.4
20260505120019 15 99 0.0 1.6 0.00 0.00 0.00 74 1012.4
20260505115633 15 99 0.0 1.6 0.00 0.00 0.00 73 1012.3
20260505115121 15 99 0.0 1.6 0.00 0.00 0.00 74 1012.3
20260505114015 15 99 0.0 1.6 0.00 0.00 0.00 73 1012.2
20260505113516 14 99 0.0 1.6 0.00 0.00 0.00 73 1012.2
20260505113022 14 80 0.0 1.6 0.00 0.00 0.00 75 1012.1
20260505113017 14 101 0.0 1.6 0.00 0.00 0.00 74 1012.2
20260505112630 13 80 0.0 1.6 0.00 0.00 0.00 75 1012.1
20260505111501 13 355 0.0 1.6 0.00 0.00 0.00 75 1012.1
20260505111005 13 355 0.0 3.2 0.00 0.00 0.00 75 1011.9
20260505111000 13 355 0.0 3.2 0.00 0.00 0.00 75 1012.1
20260505101933 12 217 0.0 1.6 0.00 0.00 0.00 79 1011.5
20260505101418 12 217 0.0 1.6 0.00 0.00 0.00 78 1011.4
20260505100920 12 217 0.0 1.6 0.00 0.00 0.00 79 1011.5
20260505100421 12 216 0.0 1.6 0.00 0.00 0.00 79 1011.4
20260505095920 12 216 0.0 0.0 0.00 0.00 0.00 77 1011.4
20260505095419 13 217 0.0 0.0 0.00 0.00 0.00 77 1011.3
20260505094919 12 217 0.0 0.0 0.00 0.00 0.00 78 1011.3
20260505094418 13 217 0.0 0.0 0.00 0.00 0.00 77 1011.3
20260505094034 13 217 0.0 1.6 0.00 0.00 0.00 75 1011.2
20260505093923 13 217 0.0 0.0 0.00 0.00 0.00 76 1011.2
20260505093919 13 217 0.0 0.0 0.00 0.00 0.00 76 1011.2
20260505092417 13 216 0.0 1.6 0.00 0.00 0.00 76 1011.2
20260505091916 13 216 0.0 1.6 0.00 0.00 0.00 79 1011.2
20260505091416 13 217 0.0 1.6 0.00 0.00 0.00 78 1011.1
20260505091411 13 217 0.0 1.6 0.00 0.00 0.00 77 1011.1
20260505090409 13 217 0.0 1.6 0.00 0.00 0.00 76 1011.1
20260505085909 13 217 0.0 1.6 0.00 0.00 0.00 78 1011.1
20260505085404 13 217 0.0 1.6 0.00 0.00 0.00 77 1011.2
20260505085400 13 217 0.0 1.6 0.00 0.00 0.00 78 1011.1
20260505084354 13 217 0.0 1.6 0.00 0.00 0.00 78 1011.2
20260505083856 13 217 0.0 1.6 0.00 0.00 0.00 77 1011.2
20260505083851 13 217 0.0 1.6 0.00 0.00 0.00 77 1011.2
20260505082849 13 217 0.0 1.6 0.00 0.00 0.00 77 1011.1
20260505082343 13 217 0.0 1.6 0.00 0.00 0.00 76 1011.1
20260505081833 13 217 0.0 1.6 0.00 0.00 0.00 76 1011.1
20260505081330 13 217 0.0 1.6 0.00 0.00 0.00 78 1011.1
20260505081324 13 217 0.0 1.6 0.00 0.00 0.00 78 1011.1
20260505080929 13 217 0.0 1.6 0.00 0.00 0.00 79 1011.1
20260505075820 13 217 0.0 0.0 0.00 0.00 0.00 78 1011.0
20260505075321 13 217 0.0 1.6 0.00 0.00 0.00 78 1011.0
20260505074821 13 217 0.0 1.6 0.00 0.00 0.00 78 1011.0
20260505074321 13 217 0.0 0.0 0.00 0.00 0.00 77 1010.9
20260505073822 13 217 0.0 0.0 0.00 0.00 0.00 76 1010.8
20260505073319 13 217 0.0 1.6 0.00 0.00 0.00 76 1010.8
20260505072818 13 217 0.0 1.6 0.00 0.00 0.00 75 1010.8
20260505072318 14 217 0.0 1.6 0.00 0.00 0.00 74 1010.9
20260505071821 14 217 0.0 1.6 0.00 0.00 0.00 76 1010.8
20260505071817 14 217 0.0 1.6 0.00 0.00 0.00 75 1010.8
20260505070813 14 217 0.0 1.6 0.00 0.00 0.00 75 1010.7
20260505070314 14 217 0.0 1.6 0.00 0.00 0.00 74 1010.7
20260505065813 14 217 0.0 1.6 0.00 0.00 0.00 74 1010.7
20260505065808 14 217 0.0 1.6 0.00 0.00 0.00 75 1010.7
20260505064806 14 217 0.0 1.6 0.00 0.00 0.00 74 1010.6
20260505064306 14 217 0.0 1.6 0.00 0.00 0.00 74 1010.7
20260505063805 14 217 0.0 1.6 0.00 0.00 0.00 74 1010.7
20260505063304 14 217 0.0 1.6 0.00 0.00 0.00 75 1010.7
20260505062804 14 217 0.0 1.6 0.00 0.00 0.00 75 1010.8
20260505062304 14 217 0.0 1.6 0.00 0.00 0.00 76 1010.8
20260505061801 14 217 0.0 1.6 0.00 0.00 0.00 76 1010.8
20260505061255 14 217 0.0 1.6 0.00 0.00 0.00 76 1010.9
20260505061250 14 217 0.0 1.6 0.00 0.00 0.00 76 1010.9
20260505060245 13 217 0.0 1.6 0.00 0.00 0.00 76 1010.9
20260505055743 14 217 0.0 1.6 0.00 0.00 0.00 76 1010.8
20260505055240 14 217 0.0 1.6 0.00 0.00 0.00 75 1010.8
20260505054741 14 217 0.0 1.6 0.00 0.00 0.00 75 1010.8
20260505054238 14 217 0.0 1.6 0.00 0.00 0.00 75 1010.8
20260505053738 14 217 0.0 1.6 0.00 0.00 0.00 75 1010.7
20260505053235 14 217 0.0 1.6 0.00 0.00 0.00 74 1010.7
20260505052734 14 217 0.0 1.6 0.00 0.00 0.00 74 1010.8
20260505052239 14 217 0.0 3.2 0.00 0.00 0.00 73 1010.8
20260505052235 14 217 0.0 3.2 0.00 0.00 0.00 73 1010.8
20260505051235 14 217 0.0 0.0 0.00 0.00 0.00 73 1010.9
20260505050734 15 217 0.0 0.0 0.00 0.00 0.00 72 1010.9
20260505050235 15 217 0.0 1.6 0.00 0.00 0.00 71 1010.9
20260505050231 15 217 0.0 1.6 0.00 0.00 0.00 71 1010.9
20260505041731 15 217 0.0 1.6 0.00 0.00 0.00 67 1010.9
20260505041727 15 217 0.0 1.6 0.00 0.00 0.00 68 1011.0
20260505040718 15 217 0.0 1.6 0.00 0.00 0.00 68 1010.9
20260505040209 15 217 0.0 1.6 0.00 0.00 0.00 67 1010.9
20260505035658 16 217 0.0 1.6 0.00 0.00 0.00 67 1010.9
20260505035151 16 217 0.0 0.0 0.00 0.00 0.00 66 1010.8
20260505034651 16 217 0.0 0.0 0.00 0.00 0.00 65 1010.8
20260505034151 16 217 0.0 1.6 0.00 0.00 0.00 65 1010.8
20260505033649 16 217 0.0 1.6 0.00 0.00 0.00 65 1010.8
20260505033148 16 217 0.0 1.6 0.00 0.00 0.00 64 1010.8
20260505032639 16 217 0.0 1.6 0.00 0.00 0.00 64 1010.9
20260505032141 16 217 0.0 1.6 0.00 0.00 0.00 63 1010.8
20260505031636 17 217 0.0 1.6 0.00 0.00 0.00 62 1010.8
20260505031137 17 217 0.0 1.6 0.00 0.00 0.00 62 1010.8
20260505030638 16 217 0.0 1.6 0.00 0.00 0.00 62 1010.8
20260505030133 17 217 0.0 1.6 0.00 0.00 0.00 62 1010.8
20260505025624 17 217 0.0 1.6 0.00 0.00 0.00 61 1010.8
20260505025123 17 217 0.0 1.6 0.00 0.00 0.00 61 1010.7
20260505025113 17 217 0.0 1.6 0.00 0.00 0.00 61 1010.7
20260505024113 17 217 0.0 1.6 0.00 0.00 0.00 61 1010.7
20260505023611 17 217 0.0 1.6 0.00 0.00 0.00 62 1010.8
20260505023112 17 217 0.0 4.8 0.00 0.00 0.00 62 1010.8
20260505022611 17 119 0.0 1.6 0.00 0.00 0.00 61 1010.7
20260505022605 17 217 0.0 4.8 0.00 0.00 0.00 62 1010.8
20260505021557 17 119 0.0 3.2 0.00 0.00 0.00 60 1010.7
20260505021055 17 119 0.0 3.2 0.00 0.00 0.00 60 1010.7
20260505020551 17 119 0.0 3.2 0.00 0.00 0.00 60 1010.5
20260505020051 17 119 0.0 3.2 0.00 0.00 0.00 59 1010.5
20260505015553 17 119 0.0 1.6 0.00 0.00 0.00 58 1010.5
20260505015050 18 119 0.0 1.6 0.00 0.00 0.00 58 1010.4
20260505014550 18 119 0.0 1.6 0.00 0.00 0.00 57 1010.4
20260505014049 18 119 0.0 1.6 0.00 0.00 0.00 57 1010.4
20260505013555 18 119 0.0 1.6 0.00 0.00 0.00 56 1010.3
20260505013550 18 119 0.0 1.6 0.00 0.00 0.00 56 1010.4
20260505012540 18 119 0.0 0.0 0.00 0.00 0.00 55 1010.2
20260505012036 18 119 0.0 1.6 0.00 0.00 0.00 55 1010.0
20260505011536 18 119 0.0 3.2 0.00 0.00 0.00 55 1010.0
20260505011027 19 119 0.0 3.2 0.00 0.00 0.00 55 1010.1
20260505010524 19 119 0.0 3.2 0.00 0.00 0.00 53 1010.0
20260505010520 19 119 0.0 3.2 0.00 0.00 0.00 53 1010.0
20260505005519 20 46 0.0 3.2 0.00 0.00 0.00 53 1010.0
20260505005024 20 154 0.0 3.2 0.00 0.00 0.00 53 1009.9
20260505005020 20 154 0.0 1.6 0.00 0.00 0.00 52 1009.9
20260505004021 20 154 0.0 3.2 0.00 0.00 0.00 52 1009.8
20260505004017 20 154 0.0 3.2 0.00 0.00 0.00 51 1009.8
20260505003033 21 154 0.0 4.8 0.00 0.00 0.00 48 1009.8
20260505003016 20 154 1.6 3.2 0.00 0.00 0.00 50 1009.8
20260505002018 21 154 0.0 4.8 0.00 0.00 0.00 47 1009.7
20260505001523 21 154 1.6 6.4 0.00 0.00 0.00 48 1009.6
20260505001518 21 154 1.6 4.8 0.00 0.00 0.00 46 1009.7
20260505000516 21 187 1.6 6.4 0.00 0.00 0.00 47 1009.7
20260505000008 21 187 1.6 6.4 0.00 0.00 0.00 45 1009.8
20260504235533 21 298 1.6 6.4 0.00 0.00 0.00 45 1009.6
20260504235528 21 152 1.6 4.8 0.00 0.00 0.00 46 1009.5
20260504235523 21 204 1.6 6.4 0.00 0.00 0.00 45 1009.6
20260504235517 22 96 1.6 6.4 0.00 0.00 0.00 44 1009.7
20260504235511 22 193 1.6 6.4 0.00 0.00 0.00 44 1009.7
20260504235505 22 197 1.6 6.4 0.00 0.00 0.00 45 1009.7
20260504232458 22 212 1.6 6.4 0.00 0.00 0.00 45 1009.5
20260504231956 22 190 1.6 6.4 0.00 0.00 0.00 44 1009.5
20260504231453 22 196 1.6 8.0 0.00 0.00 0.00 44 1009.5
20260504230953 22 157 1.6 12.9 0.00 0.00 0.00 45 1009.4
20260504230452 22 34 1.6 12.9 0.00 0.00 0.00 43 1009.4
20260504225950 22 186 1.6 12.9 0.00 0.00 0.00 42 1009.4
20260504225451 22 207 3.2 12.9 0.00 0.00 0.00 42 1009.4
20260504224951 22 186 3.2 8.0 0.00 0.00 0.00 42 1009.4
20260504224441 22 192 3.2 8.0 0.00 0.00 0.00 41 1009.4
20260504223940 23 304 3.2 9.7 0.00 0.00 0.00 41 1009.4
20260504223441 23 148 3.2 9.7 0.00 0.00 0.00 42 1009.4
20260504223436 23 186 3.2 8.0 0.00 0.00 0.00 41 1009.5
20260504223039 23 155 3.2 8.0 0.00 0.00 0.00 40 1009.4
20260504221932 23 200 3.2 8.0 0.00 0.00 0.00 41 1009.4
20260504221432 23 186 3.2 8.0 0.00 0.00 0.00 43 1009.2
20260504220934 23 158 1.6 8.0 0.00 0.00 0.00 42 1009.1
20260504220428 22 221 1.6 6.4 0.00 0.00 0.00 43 1009.2
20260504215924 22 202 3.2 9.7 0.00 0.00 0.00 43 1009.2
20260504215427 23 185 3.2 9.7 0.00 0.00 0.00 42 1009.3
20260504215423 22 191 3.2 9.7 0.00 0.00 0.00 44 1009.3
20260504214419 23 67 3.2 9.7 0.00 0.00 0.00 38 1009.2
20260504213923 23 184 3.2 8.0 0.00 0.00 0.00 40 1009.2
20260504213918 23 86 3.2 8.0 0.00 0.00 0.00 39 1009.3
20260504213531 23 46 3.2 8.0 0.00 0.00 0.00 40 1009.3
20260504212417 23 186 3.2 8.0 0.00 0.00 0.00 40 1009.2
20260504211915 23 241 3.2 11.3 0.00 0.00 0.00 38 1009.3
20260504211911 23 338 3.2 11.3 0.00 0.00 0.00 41 1009.3
20260504211522 23 324 3.2 12.9 0.00 0.00 0.00 41 1009.3
20260504210407 23 175 4.8 16.1 0.00 0.00 0.00 41 1009.4
20260504205907 23 199 4.8 16.1 0.00 0.00 0.00 37 1009.3
20260504205903 23 290 3.2 16.1 0.00 0.00 0.00 37 1009.4
20260504204902 24 169 4.8 16.1 0.00 0.00 0.00 43 1009.4
20260504204407 23 313 3.2 14.5 0.00 0.00 0.00 42 1009.3
20260504204402 23 323 4.8 14.5 0.00 0.00 0.00 41 1009.4
20260504203357 23 190 4.8 14.5 0.00 0.00 0.00 41 1009.4
20260504202859 23 346 4.8 14.5 0.00 0.00 0.00 40 1009.5
20260504202353 23 294 4.8 12.9 0.00 0.00 0.00 39 1009.7
20260504201853 23 254 3.2 8.0 0.00 0.00 0.00 38 1009.7
20260504201353 23 159 3.2 8.0 0.00 0.00 0.00 39 1009.7
20260504200854 23 236 3.2 9.7 0.00 0.00 0.00 39 1009.8
20260504200353 23 186 3.2 9.7 0.00 0.00 0.00 38 1010.0
20260504195855 23 183 4.8 9.7 0.00 0.00 0.00 38 1010.0
20260504195850 23 129 3.2 14.5 0.00 0.00 0.00 39 1010.0
20260504194851 22 158 3.2 14.5 0.00 0.00 0.00 41 1010.1
20260504194350 23 221 4.8 14.5 0.00 0.00 0.00 40 1010.2
20260504193849 23 95 4.8 14.5 0.00 0.00 0.00 38 1010.3
20260504193340 22 53 4.8 11.3 0.00 0.00 0.00 40 1010.3
20260504192839 22 182 4.8 11.3 0.00 0.00 0.00 43 1010.3
20260504192338 22 215 3.2 9.7 0.00 0.00 0.00 41 1010.5
20260504191838 22 114 3.2 6.4 0.00 0.00 0.00 38 1010.6
20260504191335 22 259 3.2 8.0 0.00 0.00 0.00 40 1010.8
20260504190836 22 219 4.8 14.5 0.00 0.00 0.00 41 1010.9
20260504190341 22 288 3.2 14.5 0.00 0.00 0.00 39 1011.1
20260504190336 22 209 4.8 14.5 0.00 0.00 0.00 39 1010.9
20260504185333 22 333 6.4 14.5 0.00 0.00 0.00 42 1011.1
20260504184833 22 292 4.8 14.5 0.00 0.00 0.00 39 1011.3
20260504184331 22 317 4.8 9.7 0.00 0.00 0.00 42 1011.3
20260504183837 21 238 3.2 9.7 0.00 0.00 0.00 44 1011.5
20260504183832 22 168 4.8 9.7 0.00 0.00 0.00 40 1011.4
20260504182830 21 308 3.2 9.7 0.00 0.00 0.00 39 1011.6
20260504182826 21 168 3.2 8.0 0.00 0.00 0.00 41 1011.5
20260504181824 21 183 3.2 9.7 0.00 0.00 0.00 40 1011.7
20260504181329 22 166 3.2 11.3 0.00 0.00 0.00 43 1011.9
20260504181324 21 101 3.2 11.3 0.00 0.00 0.00 41 1011.7
20260504180323 22 21 4.8 12.9 0.00 0.00 0.00 41 1012.0
20260504175828 21 136 3.2 12.9 0.00 0.00 0.00 43 1012.2
20260504175824 21 176 4.8 12.9 0.00 0.00 0.00 43 1012.0
20260504174822 21 221 3.2 12.9 0.00 0.00 0.00 42 1012.2
20260504174322 21 177 3.2 11.3 0.00 0.00 0.00 43 1012.1
20260504174318 21 155 4.8 11.3 0.00 0.00 0.00 41 1012.2
20260504173303 21 97 4.8 12.9 0.00 0.00 0.00 41 1012.2
20260504172804 21 333 3.2 12.9 0.00 0.00 0.00 42 1012.4
20260504172759 21 206 3.2 12.9 0.00 0.00 0.00 43 1012.5
20260504171756 20 165 3.2 8.0 0.00 0.00 0.00 44 1012.5
20260504171259 21 251 4.8 9.7 0.00 0.00 0.00 42 1012.5
20260504170754 20 233 4.8 11.3 0.00 0.00 0.00 43 1012.6
20260504170749 20 190 3.2 9.7 0.00 0.00 0.00 45 1012.6
20260504160227 19 196 4.8 14.5 0.00 0.00 0.00 44 1013.4